Regional Weather Roundup
Issued by NWS Green Bay, WI

Home | Current Version | Previous Version | Graphics & Text | Print | Product List | Glossary Off
Versions: 1 2 3 4 5 6 7 8 9 10 11 12 13 14 15 16 17 18 19 20 21 22 23 24 25 26 27 28 29 30 31 32 33 34 35 36 37 38 39 40 41 42 43 44 45 46 47 48 49 50

000
ASUS43 KGRB 291310
RWRGRB

NORTH-CENTRAL AND NORTHEAST WISCONSIN REGIONAL WEATHER ROUNDUP
NATIONAL WEATHER SERVICE GREEN BAY WI
800 AM CDT SUN MAR 29 2015

WIZ005-009-010>012-018-019-291400-
NORTH CENTRAL WISCONSIN

CITY           SKY/WX    TMP DP  RH WIND       PRES   REMARKS
IRONWOOD       CLOUDY    34  21  60 S23G35    29.55F
MANITOWISH WTR LGT SNOW  30  23  75 S16G28    29.65F
ARBOR VITAE    LGT SNOW  32  23  71 S18G26    29.66F
EAGLE RIVER    CLOUDY    32  16  51 S14G23    29.68F
LAND O LAKES   CLOUDY    32  18  56 S12G21    29.66F
RHINELANDER    CLOUDY    32  17  54 S22G32    29.71F
PHILLIPS       FLURRIES  31  26  84 S13       29.66F
ANTIGO         CLOUDY    29  18  61 S18G26    29.79F
TOMAHAWK       MIX PCPN  30  22  70 S7G21     29.72F
MERRILL        MIX PCPN  31  19  59 S12G25    29.76F
$$

WIZ013-073-291400-
NORTHEAST WISCONSIN

CITY           SKY/WX    TMP DP  RH WIND       PRES   REMARKS
IRON MOUNTAIN  PTSUNNY   30  15  53 S14       29.78F
MARINETTE      PTSUNNY   32  19  59 S20G29    29.88F
OCONTO         PTSUNNY   32  19  57 S10G22    29.91F
$$

WIZ017-030-035>037-045-291400-
CENTRAL WISCONSIN

CITY           SKY/WX    TMP DP  RH WIND       PRES   REMARKS
MEDFORD        MIX PCPN  29  24  79 S14G20    29.71F
WAUSAU         PTSUNNY   31  17  56 S17       29.78F
MOSINEE        PTSUNNY   30  18  59 S16G23    29.81F
MARSHFIELD     MIX PCPN  32  21  64 S16       29.77F
WISC RAPIDS    CLOUDY    33  16  49 S12       29.83F
STEVENS POINT  CLOUDY    30  16  56 S14G24    29.83F
WAUPACA        MOSUNNY   33  18  54 S14       29.90R
SHAWANO        PTSUNNY   33  19  57 S9        29.89F
CLINTONVILLE   PTSUNNY   32  19  59 S14G22    29.89F
$$

WIZ038-039-048-051-291400-
FOX VALLEY

CITY           SKY/WX    TMP DP  RH WIND       PRES   REMARKS
NWS GREEN BAY  PTSUNNY   33  20  58 S14       29.93F
APPLETON       PTSUNNY   30  18  59 S21       29.92F
OSHKOSH        MOSUNNY   31  18  58 S18G30    29.95F
FOND DU LAC    PTSUNNY   32  18  56 S20G35    29.95F
$$

WIZ022-050-052-291400-
EAST CENTRAL WISCONSIN

CITY           SKY/WX    TMP DP  RH WIND       PRES   REMARKS
STURGEON BAY   PTSUNNY   30  16  55 S17       29.94F
MANITOWOC      PTSUNNY   32  19  58 S15       29.97F
SHEBOYGAN      PTSUNNY   31  17  56 S18       29.98F
$$

LMZ563-521-522-541>543-291400-
LAKESHORE

STATION/POSITION TIME  TEMP    WIND        PRES    VSBY  WAVE
                       AIR SEA DIR/SP/G                  HT/PER
                 (UTC) (F)     (DEG/KT/KT) (MB)    (MI)  (FT/S)
SHEBOYGAN LKSHOR 1300   33     180/ 24/ 27 1016.0F
KEWAUNEE LKSHORE 1300   32     190/ 20/ 25 1014.6F
NORTHPORT PIER   1300   35     180/  8/ 21 1012.9F
SISTER BAY LKSHO 1200   34     200/ 22/ 26   N/A
CHAMBERS ISLAND  1300   30     160/ 11/ 16 1013.5F
MENOMINEE LKSHOR 1300   30     360/ 15     1013.1F
$$



USA.gov is the U.S. government's official web portal to all federal, state and local government web resources and services.